Change the Weather History Date:

Thursday, July 11, 2013

  Actual Average Record
Temperature  
Mean Temperature 84 °F -  
Max Temperature 93 °F 93 °F 105 °F (1998)
Min Temperature 75 °F 64 °F 61 °F (1948)
Cooling Degree Days 19    
Growing Degree Days 34 (Base 50)    
Moisture  
Dew Point 55 °F    
Average Humidity 38    
Maximum Humidity 53    
Minimum Humidity 24    
Precipitation  
Precipitation 0.00 in - - ()
Sea Level Pressure  
Sea Level Pressure 30.05 in    
Wind  
Wind Speed 10 mph (SE)    
Max Wind Speed 17 mph    
Max Gust Speed 22 mph    
Visibility 10 miles    
Events Thunderstorm    
Averages and records for this station are not official NWS values.
T = Trace of Precipitation, MM = Missing Value Source: NWS Daily Summary

Daily Weather History Graph

Daily Weather History Graph

Search for Another Location

Airport or City:

Trip Planner

Search our weather history database for the weather conditions in past years. The results will help you decide how hot, cold, wet, or windy it might be!

Date:

Astronomy

Jul. 11, 2013 Rise Set
Actual Time 5:58 AM MDT 8:08 PM MDT
Civil Twilight 5:30 AM MDT 8:36 PM MDT
Nautical Twilight 4:55 AM MDT 9:10 PM MDT
Astronomical Twilight 4:18 AM MDT 9:47 PM MDT
Moon 9:06 AM MDT (7/11) 10:04 PM MDT (7/11)
Length of Visible Light 15h 06m
Length of Day
14h 09m
Waxing Crescent, 11% of the Moon is Illuminated
Jul 11
Waxing Crescent
Jul 15
First Quarter
Jul 22
Full
Jul 29
Last Quarter
Aug 6
New

Hourly Weather History & Observations

Time (MDT) Temp. Heat Index Dew Point Humidity Pressure Visibility Wind Dir Wind Speed Gust Speed Precip Events Conditions
12:15 AM 82.4 °F 81.7 °F 55.4 °F 39% 30.07 in 10.0 mi SSE 12.7 mph - N/A   Clear
12:35 AM 82.4 °F 81.7 °F 55.4 °F 39% 30.08 in 10.0 mi SSE 13.8 mph - N/A   Clear
12:55 AM 82.4 °F 81.7 °F 55.4 °F 39% 30.08 in 10.0 mi SSE 13.8 mph - N/A   Clear
1:15 AM 80.6 °F 80.5 °F 55.4 °F 42% 30.08 in 10.0 mi SSE 15.0 mph - N/A   Clear
1:35 AM 80.6 °F 80.5 °F 55.4 °F 42% 30.07 in 10.0 mi SSE 13.8 mph - N/A   Clear
1:55 AM 80.6 °F 80.5 °F 55.4 °F 42% 30.07 in 10.0 mi SSE 12.7 mph - N/A   Clear
2:15 AM 78.8 °F - 55.4 °F 44% 30.07 in 10.0 mi SSE 12.7 mph - N/A   Clear
2:35 AM 78.8 °F - 55.4 °F 44% 30.07 in 10.0 mi South 11.5 mph - N/A   Clear
2:55 AM 77.0 °F - 55.4 °F 47% 30.07 in 10.0 mi SSE 10.4 mph - N/A   Scattered Clouds
3:15 AM 77.0 °F - 55.4 °F 47% 30.07 in 10.0 mi SSE 9.2 mph - N/A   Scattered Clouds
3:35 AM 77.0 °F - 55.4 °F 47% 30.07 in 10.0 mi South 9.2 mph - N/A   Partly Cloudy
3:55 AM 77.0 °F - 55.4 °F 47% 30.07 in 10.0 mi SSE 11.5 mph - N/A   Scattered Clouds
4:15 AM 77.0 °F - 57.2 °F 50% 30.06 in 10.0 mi South 11.5 mph - N/A   Mostly Cloudy
4:35 AM 77.0 °F - 57.2 °F 50% 30.07 in 10.0 mi SSE 10.4 mph - N/A   Mostly Cloudy
4:55 AM 77.0 °F - 57.2 °F 50% 30.07 in 10.0 mi SE 9.2 mph - N/A   Partly Cloudy
5:15 AM 75.2 °F - 57.2 °F 53% 30.07 in 10.0 mi SE 9.2 mph - N/A Thunderstorm Mostly Cloudy
5:35 AM 75.2 °F - 57.2 °F 53% 30.08 in 10.0 mi SSE 8.1 mph - N/A Thunderstorm Mostly Cloudy
5:55 AM 75.2 °F - 57.2 °F 53% 30.09 in 10.0 mi SSE 5.8 mph - N/A Thunderstorm Thunderstorm
6:15 AM 75.2 °F - 57.2 °F 53% 30.09 in 10.0 mi SE 9.2 mph - N/A Thunderstorm Mostly Cloudy
6:35 AM 75.2 °F - 57.2 °F 53% 30.10 in 10.0 mi SSW 4.6 mph - N/A Thunderstorm Partly Cloudy
6:55 AM 75.2 °F - 57.2 °F 53% 30.09 in 10.0 mi SSE 9.2 mph - N/A   Partly Cloudy
7:15 AM 77.0 °F - 57.2 °F 50% 30.09 in 10.0 mi SSE 13.8 mph - N/A   Partly Cloudy
7:35 AM 77.0 °F - 57.2 °F 50% 30.11 in 10.0 mi SSE 13.8 mph - N/A   Clear
7:55 AM 78.8 °F - 57.2 °F 47% 30.10 in 10.0 mi SSE 12.7 mph - N/A   Clear
8:15 AM 80.6 °F 80.8 °F 57.2 °F 45% 30.11 in 10.0 mi SSE 9.2 mph - N/A   Clear
8:35 AM 80.6 °F 80.8 °F 57.2 °F 45% 30.11 in 10.0 mi South 8.1 mph - N/A Thunderstorm Scattered Clouds
8:55 AM 80.6 °F 80.8 °F 57.2 °F 45% 30.12 in 10.0 mi SE 6.9 mph - N/A   Scattered Clouds
9:15 AM 80.6 °F 80.8 °F 57.2 °F 45% 30.14 in 10.0 mi North 8.1 mph - N/A   Mostly Cloudy
9:35 AM 80.6 °F 80.8 °F 57.2 °F 45% 30.14 in 10.0 mi North 12.7 mph - N/A   Scattered Clouds
9:55 AM 82.4 °F 82.0 °F 57.2 °F 42% 30.13 in 10.0 mi North 17.3 mph 21.9 mph N/A   Clear
10:15 AM 84.2 °F 83.8 °F 59.0 °F 42% 30.13 in 10.0 mi North 13.8 mph 21.9 mph N/A   Clear
10:35 AM 82.4 °F 82.5 °F 59.0 °F 45% 30.12 in 10.0 mi NNE 12.7 mph 19.6 mph N/A   Clear
10:55 AM 84.2 °F 83.8 °F 59.0 °F 42% 30.12 in 10.0 mi NNE 8.1 mph - N/A   Clear
11:15 AM 84.2 °F 83.8 °F 59.0 °F 42% 30.11 in 10.0 mi North 10.4 mph 18.4 mph N/A   Clear
11:35 AM 84.2 °F 83.8 °F 59.0 °F 42% 30.11 in 10.0 mi NNE 9.2 mph 21.9 mph N/A   Clear
11:55 AM 86.0 °F 85.4 °F 59.0 °F 40% 30.10 in 10.0 mi NE 15.0 mph 19.6 mph N/A   Clear
12:15 PM 86.0 °F 85.4 °F 59.0 °F 40% 30.09 in 10.0 mi North 11.5 mph 19.6 mph N/A   Clear
12:35 PM 86.0 °F 85.4 °F 59.0 °F 40% 30.09 in 10.0 mi North 10.4 mph 21.9 mph N/A   Clear
12:55 PM 87.8 °F 87.1 °F 59.0 °F 38% 30.08 in 10.0 mi North 15.0 mph 20.7 mph N/A   Clear
1:15 PM 87.8 °F 87.1 °F 59.0 °F 38% 30.07 in 10.0 mi North 11.5 mph 19.6 mph N/A   Clear
1:35 PM 89.6 °F 88.1 °F 57.2 °F 33% 30.06 in 10.0 mi North 11.5 mph 16.1 mph N/A   Clear
1:55 PM 89.6 °F 88.1 °F 57.2 °F 33% 30.05 in 10.0 mi NNE 9.2 mph 16.1 mph N/A   Clear
2:15 PM 91.4 °F 89.9 °F 57.2 °F 31% 30.05 in 10.0 mi NE 6.9 mph - N/A   Clear
2:35 PM 91.4 °F 89.9 °F 57.2 °F 31% 30.04 in 10.0 mi North 8.1 mph - N/A   Clear
2:55 PM 93.2 °F 91.9 °F 57.2 °F 30% 30.03 in 10.0 mi ENE 4.6 mph - N/A   Clear
3:15 PM 91.4 °F 89.9 °F 57.2 °F 31% 30.02 in 10.0 mi Calm Calm - N/A   Clear
3:35 PM 93.2 °F 91.3 °F 55.4 °F 28% 30.01 in 10.0 mi ESE 4.6 mph - N/A   Clear
3:55 PM 93.2 °F 90.8 °F 53.6 °F 26% 30.00 in 10.0 mi ESE 10.4 mph - N/A   Clear
4:15 PM 93.2 °F 90.8 °F 53.6 °F 26% 30.00 in 10.0 mi NE 3.5 mph - N/A   Clear
4:35 PM 93.2 °F 90.8 °F 53.6 °F 26% 29.99 in 10.0 mi Calm Calm - N/A   Clear
4:55 PM 93.2 °F 91.3 °F 55.4 °F 28% 29.98 in 10.0 mi Calm Calm - N/A   Clear
5:15 PM 93.2 °F 91.3 °F 55.4 °F 28% 29.97 in 10.0 mi SE 4.6 mph - N/A   Clear
5:35 PM 93.2 °F 91.3 °F 55.4 °F 28% 29.96 in 10.0 mi East 5.8 mph - N/A   Clear
5:55 PM 93.2 °F 90.8 °F 53.6 °F 26% 29.96 in 10.0 mi SE 6.9 mph - N/A   Clear
6:15 PM 93.2 °F - 51.8 °F 24% 29.96 in 10.0 mi South 9.2 mph - N/A   Clear
6:35 PM 93.2 °F - 51.8 °F 24% 29.96 in 10.0 mi South 10.4 mph - N/A   Clear
6:55 PM 93.2 °F 90.8 °F 53.6 °F 26% 29.96 in 10.0 mi South 10.4 mph - N/A   Clear
7:15 PM 93.2 °F 90.8 °F 53.6 °F 26% 29.96 in 10.0 mi South 11.5 mph - N/A   Clear
7:35 PM 91.4 °F 89.1 °F 53.6 °F 28% 29.97 in 10.0 mi South 6.9 mph - N/A   Clear
7:55 PM 89.6 °F 87.3 °F 53.6 °F 29% 29.97 in 10.0 mi SSE 8.1 mph - N/A   Clear
8:15 PM 89.6 °F - 51.8 °F 27% 29.97 in 10.0 mi SSE 9.2 mph - N/A   Clear
8:35 PM 86.0 °F - 51.8 °F 31% 29.97 in 10.0 mi SE 8.1 mph - N/A   Clear
8:55 PM 84.2 °F - 51.8 °F 33% 29.98 in 10.0 mi SSE 6.9 mph - N/A   Clear
9:15 PM 84.2 °F - 50.0 °F 30% 29.99 in 10.0 mi SSE 5.8 mph - N/A   Clear
9:35 PM 82.4 °F - 50.0 °F 32% 29.99 in 10.0 mi SSE 6.9 mph - N/A   Partly Cloudy
9:55 PM 82.4 °F - 50.0 °F 32% 30.00 in 10.0 mi SSE 6.9 mph - N/A   Clear
10:15 PM 80.6 °F - 50.0 °F 34% 30.00 in 10.0 mi SSE 6.9 mph - N/A   Clear
10:35 PM 80.6 °F - 50.0 °F 34% 30.01 in 10.0 mi South 8.1 mph - N/A   Clear
10:55 PM 80.6 °F - 50.0 °F 34% 30.02 in 10.0 mi South 8.1 mph - N/A   Clear
11:15 PM 80.6 °F - 50.0 °F 34% 30.02 in 10.0 mi South 8.1 mph - N/A   Clear
11:35 PM 77.0 °F - 50.0 °F 39% 30.02 in 10.0 mi South 6.9 mph - N/A   Clear
11:55 PM 77.0 °F - 50.0 °F 39% 30.01 in 10.0 mi South 9.2 mph - N/A   Clear